Weather History for CWGT - May, 2013

Change the Weather History Date:

Thursday, May 16, 2013

  Actual Average Record
Temperature  
Mean Temperature 56 °F -  
Max Temperature 61 °F - - ()
Min Temperature 52 °F - - ()
Degree Days  
Heating Degree Days 8    
Growing Degree Days 6 (Base 50)    
Moisture  
Dew Point 49 °F    
Average Humidity 78    
Maximum Humidity 90    
Minimum Humidity 56    
Precipitation  
Precipitation 0.00 in - - ()
Sea Level Pressure  
Sea Level Pressure 29.96 in    
Wind  
Wind Speed 3 mph ()    
Max Wind Speed 7 mph    
Max Gust Speed -    
T = Trace of Precipitation, MM = Missing Value Source: Averaged Metar Reports

Daily Weather History Graph

Daily Weather History Graph

Search for Another Location

Airport or City:

Trip Planner

Search our weather history database for the weather conditions in past years. The results will help you decide how hot, cold, wet, or windy it might be!

Date:

Astronomy

May. 16, 2013 Rise Set
Actual Time 5:31 AM PDT 8:57 PM PDT
Civil Twilight 4:52 AM PDT 9:36 PM PDT
Nautical Twilight 4:01 AM PDT 10:28 PM PDT
Astronomical Twilight 2:51 AM PDT 11:39 PM PDT
Moon 11:21 AM PDT (5/16) 1:11 AM PDT (5/16)
Length of Visible Light 16h 43m
Length of Day
15h 25m
Waxing Crescent, 36% of the Moon is Illuminated
May 16
Waxing Crescent
May 17
First Quarter
May 24
Full
May 31
Last Quarter
Jun 8
New

Hourly Weather History & Observations

Time (PDT) Temp. Dew Point Humidity Pressure Visibility Wind Dir Wind Speed Gust Speed Precip Events Conditions
12:00 AM 52.9 °F 47.1 °F 81% 30.00 in - WNW 5.8 mph - N/A   Unknown
1:00 AM 52.9 °F 46.4 °F 79% 30.00 in - West 2.3 mph - N/A   Unknown
2:00 AM 52.9 °F 48.2 °F 84% 30.00 in - Calm Calm - N/A   Unknown
3:00 AM 52.7 °F 48.7 °F 86% 29.99 in - Calm Calm - N/A   Unknown
4:00 AM 52.3 °F 48.9 °F 88% 29.99 in - SSE 3.5 mph - N/A   Unknown
5:00 AM 52 °F 49 °F 86% 29.99 in - SSE 3.5 mph - -  
5:00 AM 52.2 °F 49.1 °F 89% 29.99 in - SSE 3.5 mph - N/A   Unknown
6:00 AM 52.3 °F 49.3 °F 89% 29.99 in - South 4.6 mph - N/A   Unknown
7:00 AM 52.0 °F 48.7 °F 89% 29.99 in - South 2.3 mph - N/A   Unknown
8:00 AM 52.2 °F 49.3 °F 90% 29.99 in - NNW 2.3 mph - N/A   Unknown
9:00 AM 53.1 °F 49.8 °F 89% 30.00 in - NW 2.3 mph - N/A   Unknown
10:00 AM 53.1 °F 49.5 °F 88% 30.00 in - NW 3.5 mph - N/A   Unknown
11:00 AM 53 °F 50 °F 84% 30.00 in - SW 2.3 mph - -  
11:00 AM 53.1 °F 49.6 °F 88% 30.00 in - SW 2.3 mph - N/A   Unknown
12:00 PM 55.0 °F 50.7 °F 85% 29.99 in - West 2.3 mph - N/A   Unknown
1:00 PM 60.3 °F 50.0 °F 69% 29.99 in - NW 2.3 mph - N/A   Unknown
2:00 PM 59.9 °F 50.4 °F 71% 29.97 in - WNW 2.3 mph - N/A   Unknown
3:00 PM 58.5 °F 49.5 °F 72% 29.96 in - WNW 3.5 mph - N/A   Unknown
4:00 PM 60.4 °F 49.6 °F 68% 29.94 in - NW 3.5 mph - N/A   Unknown
5:00 PM 61 °F 49 °F 56% 29.92 in - North 3.5 mph - -  
5:00 PM 61.0 °F 49.3 °F 65% 29.92 in - North 3.5 mph - N/A   Unknown
6:00 PM 61.2 °F 48.9 °F 64% 29.91 in - North 3.5 mph - N/A   Unknown
7:00 PM 59.5 °F 48.7 °F 67% 29.89 in - North 3.5 mph - N/A   Unknown
8:00 PM 58.6 °F 48.4 °F 69% 29.89 in - NNW 4.6 mph - N/A   Unknown
9:00 PM 57.4 °F 51.3 °F 80% 29.88 in - North 6.9 mph - N/A   Unknown
10:00 PM 57.0 °F 50.4 °F 78% 29.90 in - WNW 3.5 mph - N/A   Unknown
11:00 PM 57 °F 46 °F 56% 29.90 in - West 2.3 mph - -  
11:00 PM 56.7 °F 45.5 °F 66% 29.90 in - West 2.3 mph - N/A   Unknown